Time,TemperatureF,DewpointF,PressureIn,WindDirection,WindDirectionDegrees,WindSpeedMPH,WindSpeedGustMPH,Humidity,HourlyPrecipIn,Conditions,Clouds,dailyrainin,SoftwareType,DateUTC
2013-04-07 00:01:00,46.6,33.8,29.70,NE,39,2.2,5.8,63,0.00,,,0.00,WUHU216WMR968SP,2013-04-07 07:01:00,
2013-04-07 00:06:00,46.6,35.6,29.68,NE,39,0.0,5.8,64,0.00,,,0.00,WUHU216WMR968SP,2013-04-07 07:06:00,
2013-04-07 00:11:00,46.8,35.6,29.68,NNE,27,3.1,4.0,67,0.00,,,0.00,WUHU216WMR968SP,2013-04-07 07:11:00,
2013-04-07 00:16:00,46.8,37.4,29.68,ESE,111,0.0,4.0,69,0.00,,,0.00,WUHU216WMR968SP,2013-04-07 07:16:00,
2013-04-07 00:21:00,46.9,37.4,29.68,East,80,0.0,4.0,70,0.00,,,0.00,WUHU216WMR968SP,2013-04-07 07:21:00,
2013-04-07 00:26:00,46.8,37.4,29.68,NW,306,4.5,6.3,70,0.00,,,0.00,WUHU216WMR968SP,2013-04-07 07:26:00,
2013-04-07 00:31:00,46.8,37.4,29.68,West,270,0.0,6.3,70,0.00,,,0.00,WUHU216WMR968SP,2013-04-07 07:31:00,
2013-04-07 00:36:00,46.8,37.4,29.68,West,270,0.0,4.9,70,0.00,,,0.00,WUHU216WMR968SP,2013-04-07 07:36:00,
2013-04-07 00:41:00,46.8,37.4,29.68,West,270,0.0,0.0,70,0.00,,,0.00,WUHU216WMR968SP,2013-04-07 07:41:00,
2013-04-07 00:46:00,46.8,37.4,29.68,West,270,0.0,4.0,71,0.00,,,0.00,WUHU216WMR968SP,2013-04-07 07:46:00,
2013-04-07 00:51:00,46.9,37.4,29.68,West,270,0.0,4.0,72,0.00,,,0.00,WUHU216WMR968SP,2013-04-07 07:51:00,
2013-04-07 00:56:00,47.1,37.4,29.68,West,270,0.0,0.0,72,0.00,,,0.00,WUHU216WMR968SP,2013-04-07 07:56:00,
2013-04-07 01:01:00,47.3,39.2,29.68,NE,37,0.0,3.6,72,0.00,,,0.00,WUHU216WMR968SP,2013-04-07 08:01:00,
2013-04-07 01:06:00,47.7,41.0,29.68,SSE,151,0.0,6.3,74,0.00,,,0.00,WUHU216WMR968SP,2013-04-07 08:06:00,
2013-04-07 01:11:00,48.0,41.0,29.68,ENE,64,0.0,6.3,74,0.00,,,0.00,WUHU216WMR968SP,2013-04-07 08:11:00,
2013-04-07 01:17:00,48.4,39.2,29.68,ENE,64,0.0,3.1,73,0.00,,,0.00,WUHU216WMR968SP,2013-04-07 08:17:00,
2013-04-07 01:22:00,48.4,39.2,29.65,ESE,122,2.7,4.5,71,0.00,,,0.00,WUHU216WMR968SP,2013-04-07 08:22:00,
2013-04-07 01:27:00,49.3,33.8,29.65,SW,236,2.7,4.9,54,0.00,,,0.00,WUHU216WMR968SP,2013-04-07 08:27:00,
2013-04-07 01:32:00,49.5,32.0,29.65,ESE,116,3.1,8.1,48,0.00,,,0.00,WUHU216WMR968SP,2013-04-07 08:32:00,
2013-04-07 01:37:00,50.4,26.8,29.62,South,182,5.4,8.1,40,0.00,,,0.00,WUHU216WMR968SP,2013-04-07 08:37:00,
2013-04-07 01:42:00,50.4,26.8,29.62,SSW,206,2.2,6.3,40,0.00,,,0.00,WUHU216WMR968SP,2013-04-07 08:42:00,
2013-04-07 01:47:00,50.7,26.4,29.62,SW,226,2.7,6.3,39,0.00,,,0.00,WUHU216WMR968SP,2013-04-07 08:47:00,
2013-04-07 01:52:00,50.9,26.0,29.62,South,183,2.2,6.3,38,0.00,,,0.00,WUHU216WMR968SP,2013-04-07 08:52:00,
2013-04-07 01:57:00,51.1,26.8,29.62,SW,230,0.0,4.9,39,0.00,,,0.00,WUHU216WMR968SP,2013-04-07 08:57:00,
2013-04-07 02:02:00,50.9,27.2,29.62,SSE,162,0.0,4.0,40,0.00,,,0.00,WUHU216WMR968SP,2013-04-07 09:02:00,
2013-04-07 02:07:00,51.4,26.4,29.62,SSE,147,0.0,8.3,38,0.00,,,0.00,WUHU216WMR968SP,2013-04-07 09:07:00,
2013-04-07 02:12:00,51.4,25.8,29.62,SE,143,5.4,8.3,37,0.00,,,0.00,WUHU216WMR968SP,2013-04-07 09:12:00,
2013-04-07 02:17:00,51.6,25.9,29.62,SSE,150,5.8,8.1,37,0.04,,,0.04,WUHU216WMR968SP,2013-04-07 09:17:00,
2013-04-07 02:22:00,51.8,26.1,29.65,SSE,160,3.1,8.1,37,0.04,,,0.04,WUHU216WMR968SP,2013-04-07 09:22:00,
2013-04-07 02:27:00,51.6,26.6,29.65,SSE,156,3.1,6.3,38,0.04,,,0.04,WUHU216WMR968SP,2013-04-07 09:27:00,
2013-04-07 02:32:00,51.6,27.2,29.65,SW,233,4.5,8.7,39,0.04,,,0.04,WUHU216WMR968SP,2013-04-07 09:32:00,
2013-04-07 02:37:00,51.3,27.0,29.65,SSW,205,4.0,8.7,39,0.04,,,0.04,WUHU216WMR968SP,2013-04-07 09:37:00,
2013-04-07 02:42:00,51.3,27.6,29.65,South,178,4.9,8.1,40,0.04,,,0.04,WUHU216WMR968SP,2013-04-07 09:42:00,
2013-04-07 02:47:00,51.4,27.1,29.65,SSE,159,6.3,9.6,39,0.04,,,0.04,WUHU216WMR968SP,2013-04-07 09:47:00,
2013-04-07 02:52:00,51.4,27.7,29.65,SSE,167,6.7,10.1,40,0.04,,,0.04,WUHU216WMR968SP,2013-04-07 09:52:00,
2013-04-07 03:35:00,52.2,26.5,29.65,SSE,157,4.0,5.4,37,0.00,,,0.04,WUHU216WMR968SP,2013-04-07 10:35:00,
2013-04-07 03:40:00,52.2,26.5,29.65,South,183,4.5,8.3,37,0.00,,,0.04,WUHU216WMR968SP,2013-04-07 10:40:00,
2013-04-07 03:45:00,52.2,26.5,29.65,SSW,192,5.8,11.0,37,0.00,,,0.04,WUHU216WMR968SP,2013-04-07 10:45:00,
2013-04-07 03:50:00,52.2,26.5,29.65,SSW,193,6.3,11.0,37,0.00,,,0.04,WUHU216WMR968SP,2013-04-07 10:50:00,
2013-04-07 03:55:00,52.2,26.5,29.65,South,171,4.9,11.0,37,0.00,,,0.04,WUHU216WMR968SP,2013-04-07 10:55:00,
2013-04-07 04:00:00,52.3,25.9,29.65,SSW,203,4.9,11.0,36,0.00,,,0.04,WUHU216WMR968SP,2013-04-07 11:00:00,
2013-04-07 04:05:00,52.3,25.9,29.65,SSE,164,3.6,8.7,36,0.00,,,0.04,WUHU216WMR968SP,2013-04-07 11:05:00,
2013-04-07 04:10:00,52.5,26.1,29.65,South,177,5.8,11.0,36,0.00,,,0.04,WUHU216WMR968SP,2013-04-07 11:10:00,
2013-04-07 04:15:00,52.7,25.6,29.65,South,190,7.2,12.3,35,0.00,,,0.04,WUHU216WMR968SP,2013-04-07 11:15:00,
2013-04-07 04:20:00,52.7,24.9,29.65,SSW,198,8.3,12.8,34,0.00,,,0.04,WUHU216WMR968SP,2013-04-07 11:20:00,
2013-04-07 04:25:00,52.9,24.3,29.65,SSW,211,6.3,12.8,33,0.00,,,0.04,WUHU216WMR968SP,2013-04-07 11:25:00,
2013-04-07 04:30:00,52.2,25.8,29.65,SW,222,5.4,10.1,36,0.00,,,0.04,WUHU216WMR968SP,2013-04-07 11:30:00,
2013-04-07 04:35:00,51.8,26.1,29.68,SW,229,4.5,10.5,37,0.00,,,0.04,WUHU216WMR968SP,2013-04-07 11:35:00,
2013-04-07 04:40:00,51.3,26.3,29.68,West,261,4.9,10.5,38,0.00,,,0.04,WUHU216WMR968SP,2013-04-07 11:40:00,
2013-04-07 04:46:00,51.1,26.2,29.68,South,189,4.9,9.6,38,0.00,,,0.04,WUHU216WMR968SP,2013-04-07 11:46:00,
2013-04-07 04:51:00,52.0,24.3,29.68,SSW,205,10.1,15.0,34,0.00,,,0.04,WUHU216WMR968SP,2013-04-07 11:51:00,
2013-04-07 04:56:00,52.0,23.5,29.68,SW,223,6.7,15.0,33,0.00,,,0.04,WUHU216WMR968SP,2013-04-07 11:56:00,
2013-04-07 05:01:00,52.2,23.0,29.68,SW,232,10.5,18.8,32,0.00,,,0.04,WUHU216WMR968SP,2013-04-07 12:01:00,
2013-04-07 05:06:00,51.6,25.3,29.70,SW,214,8.1,18.8,36,0.00,,,0.04,WUHU216WMR968SP,2013-04-07 12:06:00,
2013-04-07 05:11:00,50.7,25.8,29.70,SSW,196,7.6,13.2,38,0.00,,,0.04,WUHU216WMR968SP,2013-04-07 12:11:00,
2013-04-07 05:16:00,50.5,25.0,29.70,South,188,8.1,12.8,37,0.00,,,0.04,WUHU216WMR968SP,2013-04-07 12:16:00,
2013-04-07 05:21:00,50.5,25.0,29.70,SW,232,8.3,12.8,37,0.00,,,0.04,WUHU216WMR968SP,2013-04-07 12:21:00,
2013-04-07 05:26:00,50.5,25.0,29.70,SW,221,4.9,12.8,37,0.00,,,0.04,WUHU216WMR968SP,2013-04-07 12:26:00,
2013-04-07 05:31:00,50.5,24.3,29.70,SSW,204,6.3,12.3,36,0.00,,,0.04,WUHU216WMR968SP,2013-04-07 12:31:00,
2013-04-07 05:36:00,50.5,24.3,29.70,WSW,250,8.1,12.3,36,0.00,,,0.04,WUHU216WMR968SP,2013-04-07 12:36:00,
2013-04-07 05:42:00,50.4,24.2,29.70,SW,224,7.6,11.4,36,0.00,,,0.04,WUHU216WMR968SP,2013-04-07 12:42:00,
2013-04-07 05:47:00,50.2,24.0,29.70,South,187,5.4,11.0,36,0.00,,,0.04,WUHU216WMR968SP,2013-04-07 12:47:00,
2013-04-07 05:52:00,50.2,24.0,29.73,South,173,6.7,11.0,36,0.00,,,0.04,WUHU216WMR968SP,2013-04-07 12:52:00,
2013-04-07 05:57:00,49.8,24.3,29.73,SSW,200,6.3,11.0,37,0.00,,,0.04,WUHU216WMR968SP,2013-04-07 12:57:00,
2013-04-07 06:02:00,49.1,23.7,29.73,WSW,237,5.8,8.7,37,0.00,,,0.04,WUHU216WMR968SP,2013-04-07 13:02:00,
2013-04-07 06:07:00,49.1,24.4,29.73,SW,216,5.4,8.7,38,0.00,,,0.04,WUHU216WMR968SP,2013-04-07 13:07:00,
2013-04-07 06:12:00,48.9,23.5,29.73,SSW,209,6.3,8.7,37,0.00,,,0.04,WUHU216WMR968SP,2013-04-07 13:12:00,
2013-04-07 06:17:00,48.9,23.5,29.73,SW,234,5.4,10.5,37,0.00,,,0.04,WUHU216WMR968SP,2013-04-07 13:17:00,
2013-04-07 06:22:00,48.9,22.9,29.73,SSW,207,6.3,10.5,36,0.00,,,0.04,WUHU216WMR968SP,2013-04-07 13:22:00,
2013-04-07 06:27:00,48.7,22.7,29.73,SSW,212,4.0,8.3,36,0.00,,,0.04,WUHU216WMR968SP,2013-04-07 13:27:00,
2013-04-07 06:32:00,48.6,22.6,29.73,SSW,211,4.0,6.7,36,0.00,,,0.04,WUHU216WMR968SP,2013-04-07 13:32:00,
2013-04-07 06:37:00,48.7,22.7,29.73,SSW,208,5.4,6.3,36,0.00,,,0.04,WUHU216WMR968SP,2013-04-07 13:37:00,
2013-04-07 06:42:00,48.7,23.4,29.73,SSW,208,3.6,6.7,37,0.00,,,0.04,WUHU216WMR968SP,2013-04-07 13:42:00,
2013-04-07 06:47:00,48.4,23.1,29.73,WSW,248,4.5,6.7,37,0.00,,,0.04,WUHU216WMR968SP,2013-04-07 13:47:00,
2013-04-07 06:52:00,48.6,22.6,29.76,South,184,4.0,6.3,36,0.00,,,0.04,WUHU216WMR968SP,2013-04-07 13:52:00,
2013-04-07 06:57:00,48.6,22.6,29.76,South,185,2.7,7.2,36,0.00,,,0.04,WUHU216WMR968SP,2013-04-07 13:57:00,
2013-04-07 07:02:00,48.0,22.7,29.76,SW,214,5.8,8.3,37,0.00,,,0.04,WUHU216WMR968SP,2013-04-07 14:02:00,
2013-04-07 07:07:00,47.5,22.9,29.76,South,182,0.0,8.3,38,0.00,,,0.04,WUHU216WMR968SP,2013-04-07 14:07:00,
2013-04-07 07:12:00,47.3,22.8,29.76,SW,234,3.1,6.3,38,0.00,,,0.04,WUHU216WMR968SP,2013-04-07 14:12:00,
2013-04-07 07:17:00,47.3,22.8,29.76,SW,217,0.0,5.4,38,0.00,,,0.04,WUHU216WMR968SP,2013-04-07 14:17:00,
2013-04-07 07:23:00,47.3,22.8,29.76,SSW,198,2.2,5.4,38,0.00,,,0.04,WUHU216WMR968SP,2013-04-07 14:23:00,
2013-04-07 07:28:00,47.5,22.3,29.76,South,178,4.5,8.7,37,0.00,,,0.04,WUHU216WMR968SP,2013-04-07 14:28:00,
2013-04-07 07:33:00,47.5,22.3,29.76,South,186,5.8,8.7,37,0.00,,,0.04,WUHU216WMR968SP,2013-04-07 14:33:00,
2013-04-07 07:38:00,47.5,22.3,29.76,SSW,209,4.0,8.1,37,0.00,,,0.04,WUHU216WMR968SP,2013-04-07 14:38:00,
2013-04-07 07:44:00,47.1,22.6,29.76,South,173,2.7,8.1,38,0.00,,,0.04,WUHU216WMR968SP,2013-04-07 14:44:00,
2013-04-07 07:49:00,46.9,22.4,29.79,SSW,208,3.6,6.3,38,0.00,,,0.04,WUHU216WMR968SP,2013-04-07 14:49:00,
2013-04-07 07:54:00,46.9,22.4,29.79,SW,214,0.0,6.3,38,0.00,,,0.04,WUHU216WMR968SP,2013-04-07 14:54:00,
2013-04-07 07:59:00,47.1,22.6,29.79,South,171,3.1,5.8,38,0.00,,,0.04,WUHU216WMR968SP,2013-04-07 14:59:00,
2013-04-07 08:04:00,47.3,22.1,29.79,SW,233,0.0,5.8,37,0.00,,,0.04,WUHU216WMR968SP,2013-04-07 15:04:00,
2013-04-07 08:09:00,47.3,22.1,29.79,SSW,210,3.1,4.0,37,0.00,,,0.04,WUHU216WMR968SP,2013-04-07 15:09:00,
2013-04-07 08:14:00,47.5,22.3,29.79,South,185,3.6,6.3,37,0.00,,,0.04,WUHU216WMR968SP,2013-04-07 15:14:00,
2013-04-07 08:19:00,47.5,22.3,29.79,SSW,206,4.9,7.2,37,0.00,,,0.04,WUHU216WMR968SP,2013-04-07 15:19:00,
2013-04-07 08:24:00,47.3,22.1,29.79,South,190,4.5,7.2,37,0.00,,,0.04,WUHU216WMR968SP,2013-04-07 15:24:00,
2013-04-07 08:29:00,47.3,22.8,29.79,SSW,203,3.1,7.6,38,0.00,,,0.04,WUHU216WMR968SP,2013-04-07 15:29:00,
2013-04-07 08:34:00,47.1,22.6,29.79,South,184,2.7,7.6,38,0.00,,,0.04,WUHU216WMR968SP,2013-04-07 15:34:00,
2013-04-07 08:39:00,47.1,22.6,29.79,South,185,3.6,5.4,38,0.00,,,0.04,WUHU216WMR968SP,2013-04-07 15:39:00,
2013-04-07 08:44:00,47.1,22.6,29.79,South,186,3.6,5.4,38,0.00,,,0.04,WUHU216WMR968SP,2013-04-07 15:44:00,
2013-04-07 08:50:00,47.1,22.6,29.79,SW,218,3.6,6.3,38,0.00,,,0.04,WUHU216WMR968SP,2013-04-07 15:50:00,
2013-04-07 08:55:00,47.1,22.6,29.79,SSE,151,4.5,7.2,38,0.00,,,0.04,WUHU216WMR968SP,2013-04-07 15:55:00,
2013-04-07 09:00:00,47.1,21.9,29.79,South,180,3.6,7.2,37,0.00,,,0.04,WUHU216WMR968SP,2013-04-07 16:00:00,
2013-04-07 09:05:00,47.1,22.6,29.79,South,190,2.2,6.3,38,0.00,,,0.04,WUHU216WMR968SP,2013-04-07 16:05:00,
2013-04-07 09:10:00,46.9,22.4,29.79,South,188,2.7,6.3,38,0.00,,,0.04,WUHU216WMR968SP,2013-04-07 16:10:00,
2013-04-07 09:15:00,46.9,21.8,29.79,South,181,2.7,5.4,37,0.00,,,0.04,WUHU216WMR968SP,2013-04-07 16:15:00,
2013-04-07 09:20:00,46.9,22.4,29.79,SW,220,3.1,5.8,38,0.00,,,0.04,WUHU216WMR968SP,2013-04-07 16:20:00,
2013-04-07 09:25:00,46.9,22.4,29.79,SW,218,3.6,5.8,38,0.00,,,0.04,WUHU216WMR968SP,2013-04-07 16:25:00,
2013-04-07 09:30:00,46.9,21.8,29.79,South,189,4.9,7.2,37,0.00,,,0.04,WUHU216WMR968SP,2013-04-07 16:30:00,
2013-04-07 09:35:00,47.1,21.9,29.82,South,188,4.0,7.2,37,0.00,,,0.04,WUHU216WMR968SP,2013-04-07 16:35:00,
2013-04-07 09:40:00,47.1,21.9,29.82,South,187,6.3,8.1,37,0.00,,,0.04,WUHU216WMR968SP,2013-04-07 16:40:00,
2013-04-07 09:45:00,47.1,21.9,29.82,SW,228,4.0,8.1,37,0.00,,,0.04,WUHU216WMR968SP,2013-04-07 16:45:00,
2013-04-07 09:50:00,47.1,21.9,29.82,SSW,194,5.4,8.1,37,0.00,,,0.04,WUHU216WMR968SP,2013-04-07 16:50:00,
2013-04-07 09:55:00,47.1,21.9,29.82,South,181,4.5,8.1,37,0.00,,,0.04,WUHU216WMR968SP,2013-04-07 16:55:00,
2013-04-07 10:00:00,47.1,21.9,29.82,SSW,194,5.4,8.3,37,0.00,,,0.04,WUHU216WMR968SP,2013-04-07 17:00:00,
2013-04-07 10:05:00,46.9,21.8,29.82,SSW,208,0.0,8.3,37,0.00,,,0.04,WUHU216WMR968SP,2013-04-07 17:05:00,
2013-04-07 10:10:00,46.9,22.4,29.82,SSW,207,0.0,5.4,38,0.00,,,0.04,WUHU216WMR968SP,2013-04-07 17:10:00,
2013-04-07 10:15:00,46.9,22.4,29.82,SE,136,0.0,3.6,38,0.00,,,0.04,WUHU216WMR968SP,2013-04-07 17:15:00,
2013-04-07 10:20:00,47.1,21.9,29.82,SW,214,4.0,6.3,37,0.00,,,0.04,WUHU216WMR968SP,2013-04-07 17:20:00,
2013-04-07 10:25:00,47.3,19.4,29.82,SW,216,7.6,10.1,33,0.00,,,0.04,WUHU216WMR968SP,2013-04-07 17:25:00,
2013-04-07 10:30:00,47.3,19.4,29.82,SSW,192,6.3,10.1,33,0.00,,,0.04,WUHU216WMR968SP,2013-04-07 17:30:00,
2013-04-07 10:35:00,47.5,19.6,29.82,SSW,211,5.4,10.1,33,0.00,,,0.04,WUHU216WMR968SP,2013-04-07 17:35:00,
2013-04-07 10:40:00,47.3,18.7,29.82,SW,220,5.4,10.1,32,0.00,,,0.04,WUHU216WMR968SP,2013-04-07 17:40:00,
2013-04-07 10:46:00,47.3,20.1,29.82,SW,232,2.2,7.2,34,0.00,,,0.04,WUHU216WMR968SP,2013-04-07 17:46:00,
2013-04-07 10:51:00,47.3,19.4,29.82,SSW,197,4.0,7.6,33,0.00,,,0.04,WUHU216WMR968SP,2013-04-07 17:51:00,
2013-04-07 10:56:00,47.3,20.1,29.82,SSW,209,4.0,10.5,34,0.00,,,0.04,WUHU216WMR968SP,2013-04-07 17:56:00,
2013-04-07 11:02:00,46.6,21.5,29.82,South,191,4.9,10.5,37,0.00,,,0.04,WUHU216WMR968SP,2013-04-07 18:02:00,
2013-04-07 11:07:00,46.0,22.2,29.82,SSW,209,6.3,8.7,39,0.00,,,0.04,WUHU216WMR968SP,2013-04-07 18:07:00,
2013-04-07 11:12:00,45.7,21.9,29.82,SW,215,5.4,8.7,39,0.00,,,0.04,WUHU216WMR968SP,2013-04-07 18:12:00,
2013-04-07 11:17:00,45.3,22.2,29.82,SSW,211,4.9,12.8,40,0.00,,,0.04,WUHU216WMR968SP,2013-04-07 18:17:00,
2013-04-07 11:22:00,45.3,22.8,29.82,SSW,212,4.0,12.8,41,0.00,,,0.04,WUHU216WMR968SP,2013-04-07 18:22:00,
2013-04-07 11:27:00,45.5,23.0,29.82,SSW,195,4.5,6.7,41,0.00,,,0.04,WUHU216WMR968SP,2013-04-07 18:27:00,
2013-04-07 11:32:00,45.5,23.0,29.82,South,186,4.5,8.7,41,0.00,,,0.04,WUHU216WMR968SP,2013-04-07 18:32:00,
2013-04-07 11:37:00,45.9,23.9,29.82,South,184,4.0,8.7,42,0.00,,,0.04,WUHU216WMR968SP,2013-04-07 18:37:00,
2013-04-07 11:42:00,46.2,21.8,29.82,SSW,199,5.4,7.6,38,0.00,,,0.04,WUHU216WMR968SP,2013-04-07 18:42:00,
2013-04-07 11:47:00,46.8,21.7,29.82,SSW,205,6.3,8.7,37,0.00,,,0.04,WUHU216WMR968SP,2013-04-07 18:47:00,
2013-04-07 11:52:00,46.9,21.1,29.82,SW,216,4.0,8.7,36,0.00,,,0.04,WUHU216WMR968SP,2013-04-07 18:52:00,
2013-04-07 11:57:00,47.3,20.1,29.82,South,189,5.4,7.6,34,0.00,,,0.04,WUHU216WMR968SP,2013-04-07 18:57:00,
2013-04-07 12:02:00,47.3,19.4,29.82,SSW,194,6.7,8.7,33,0.00,,,0.04,WUHU216WMR968SP,2013-04-07 19:02:00,
2013-04-07 12:07:00,47.5,19.6,29.82,SE,141,6.3,8.7,33,0.00,,,0.04,WUHU216WMR968SP,2013-04-07 19:07:00,
2013-04-07 12:12:00,47.8,18.4,29.82,South,189,4.9,8.7,31,0.00,,,0.04,WUHU216WMR968SP,2013-04-07 19:12:00,
2013-04-07 12:17:00,48.4,19.6,29.82,WSW,243,3.6,8.1,32,0.00,,,0.04,WUHU216WMR968SP,2013-04-07 19:17:00,
2013-04-07 12:22:00,48.7,19.2,29.82,SW,217,4.5,7.2,31,0.00,,,0.04,WUHU216WMR968SP,2013-04-07 19:22:00,
2013-04-07 12:27:00,49.1,18.8,29.82,SW,227,2.7,7.6,30,0.00,,,0.04,WUHU216WMR968SP,2013-04-07 19:27:00,
2013-04-07 12:32:00,48.9,18.6,29.82,SW,227,3.1,7.6,30,0.00,,,0.04,WUHU216WMR968SP,2013-04-07 19:32:00,
2013-04-07 12:37:00,48.7,18.4,29.82,SW,222,4.5,6.3,30,0.00,,,0.04,WUHU216WMR968SP,2013-04-07 19:37:00,
2013-04-07 12:42:00,48.7,18.4,29.82,South,189,2.7,7.6,30,0.00,,,0.04,WUHU216WMR968SP,2013-04-07 19:42:00,
2013-04-07 12:47:00,48.7,18.4,29.82,SW,224,3.6,7.6,30,0.00,,,0.04,WUHU216WMR968SP,2013-04-07 19:47:00,
2013-04-07 12:52:00,48.6,17.5,29.82,South,183,5.4,7.6,29,0.00,,,0.04,WUHU216WMR968SP,2013-04-07 19:52:00,
2013-04-07 12:57:00,48.4,20.4,29.82,WNW,301,3.1,7.6,33,0.00,,,0.04,WUHU216WMR968SP,2013-04-07 19:57:00,
2013-04-07 13:02:00,47.7,22.5,29.82,NW,318,6.3,7.6,37,0.00,,,0.04,WUHU216WMR968SP,2013-04-07 20:02:00,
2013-04-07 13:07:00,45.5,21.1,29.85,SSW,213,4.9,8.3,38,0.00,,,0.04,WUHU216WMR968SP,2013-04-07 20:07:00,
2013-04-07 13:12:00,44.2,21.2,29.85,NNW,343,4.5,9.6,40,0.04,,,0.08,WUHU216WMR968SP,2013-04-07 20:12:00,
2013-04-07 13:17:00,44.6,23.3,29.85,WNW,282,3.1,9.6,43,0.04,,,0.08,WUHU216WMR968SP,2013-04-07 20:17:00,
2013-04-07 13:22:00,45.1,23.2,29.85,WSW,258,2.7,6.3,42,0.04,,,0.08,WUHU216WMR968SP,2013-04-07 20:22:00,
2013-04-07 13:27:00,45.7,23.7,29.85,SW,226,0.0,6.3,42,0.04,,,0.08,WUHU216WMR968SP,2013-04-07 20:27:00,
2013-04-07 13:32:00,46.0,24.0,29.85,South,170,0.0,5.8,42,0.04,,,0.08,WUHU216WMR968SP,2013-04-07 20:32:00,
2013-04-07 13:37:00,47.1,23.2,29.82,SW,216,0.0,4.9,39,0.04,,,0.08,WUHU216WMR968SP,2013-04-07 20:37:00,
2013-04-07 13:42:00,47.8,23.2,29.82,WSW,239,2.7,4.9,38,0.04,,,0.08,WUHU216WMR968SP,2013-04-07 20:42:00,
2013-04-07 13:47:00,48.7,24.0,29.82,WSW,240,0.0,4.0,38,0.04,,,0.08,WUHU216WMR968SP,2013-04-07 20:47:00,
2013-04-07 13:52:00,48.9,20.8,29.82,South,178,4.5,10.1,33,0.04,,,0.08,WUHU216WMR968SP,2013-04-07 20:52:00,
2013-04-07 13:57:00,49.1,23.1,29.82,WNW,286,4.0,10.1,36,0.04,,,0.08,WUHU216WMR968SP,2013-04-07 20:57:00,
2013-04-07 14:02:00,49.1,23.1,29.82,WSW,239,3.6,8.7,36,0.04,,,0.08,WUHU216WMR968SP,2013-04-07 21:02:00,
2013-04-07 14:07:00,48.6,21.9,29.82,WNW,302,3.6,7.6,35,0.00,,,0.08,WUHU216WMR968SP,2013-04-07 21:07:00,
2013-04-07 14:13:00,48.2,22.3,29.82,WNW,284,5.4,8.1,36,0.00,,,0.08,WUHU216WMR968SP,2013-04-07 21:13:00,
2013-04-07 14:19:00,47.5,22.3,29.85,WNW,287,4.0,8.1,37,0.00,,,0.08,WUHU216WMR968SP,2013-04-07 21:19:00,
2013-04-07 14:24:00,47.3,22.1,29.85,West,267,4.0,8.3,37,0.00,,,0.08,WUHU216WMR968SP,2013-04-07 21:24:00,
2013-04-07 14:29:00,47.3,21.5,29.85,WNW,289,2.7,8.3,36,0.00,,,0.08,WUHU216WMR968SP,2013-04-07 21:29:00,
2013-04-07 14:34:00,47.5,22.3,29.82,WNW,289,2.2,5.8,37,0.00,,,0.08,WUHU216WMR968SP,2013-04-07 21:34:00,
2013-04-07 14:39:00,47.7,22.5,29.82,NW,320,3.1,5.4,37,0.00,,,0.08,WUHU216WMR968SP,2013-04-07 21:39:00,
2013-04-07 14:44:00,47.8,21.9,29.82,SW,226,0.0,5.4,36,0.00,,,0.08,WUHU216WMR968SP,2013-04-07 21:44:00,
2013-04-07 14:49:00,48.0,22.7,29.82,West,276,0.0,3.6,37,0.00,,,0.08,WUHU216WMR968SP,2013-04-07 21:49:00,
2013-04-07 14:55:00,48.6,22.6,29.82,West,276,0.0,3.6,36,0.00,,,0.08,WUHU216WMR968SP,2013-04-07 21:55:00,
2013-04-07 15:00:00,48.9,22.2,29.82,West,276,0.0,0.0,35,0.00,,,0.08,WUHU216WMR968SP,2013-04-07 22:00:00,
2013-04-07 15:05:00,49.1,21.0,29.82,West,276,0.0,3.1,33,0.00,,,0.08,WUHU216WMR968SP,2013-04-07 22:05:00,
2013-04-07 15:10:00,48.7,23.4,29.82,WNW,298,3.6,6.3,37,0.00,,,0.08,WUHU216WMR968SP,2013-04-07 22:10:00,
2013-04-07 15:15:00,45.7,20.0,29.82,SW,218,5.8,14.1,36,0.04,,,0.12,WUHU216WMR968SP,2013-04-07 22:15:00,
2013-04-07 15:20:00,44.1,20.5,29.85,SW,214,4.0,14.1,39,0.04,,,0.12,WUHU216WMR968SP,2013-04-07 22:20:00,
2013-04-07 15:25:00,44.1,22.3,29.85,SW,215,0.0,5.8,42,0.04,,,0.12,WUHU216WMR968SP,2013-04-07 22:25:00,
2013-04-07 15:30:00,44.6,23.3,29.85,SW,214,0.0,4.0,43,0.04,,,0.12,WUHU216WMR968SP,2013-04-07 22:30:00,
2013-04-07 15:35:00,45.0,24.2,29.85,SW,215,0.0,0.0,44,0.04,,,0.12,WUHU216WMR968SP,2013-04-07 22:35:00,
2013-04-07 15:40:00,45.7,26.0,29.85,SW,216,0.0,0.0,46,0.04,,,0.12,WUHU216WMR968SP,2013-04-07 22:40:00,
2013-04-07 15:45:00,46.2,24.8,29.85,West,259,3.6,5.4,43,0.04,,,0.12,WUHU216WMR968SP,2013-04-07 22:45:00,
2013-04-07 15:51:00,46.6,24.0,29.85,SW,228,3.1,5.4,41,0.04,,,0.12,WUHU216WMR968SP,2013-04-07 22:51:00,
2013-04-07 15:56:00,46.8,22.3,29.85,WNW,282,3.1,5.8,38,0.04,,,0.12,WUHU216WMR968SP,2013-04-07 22:56:00,
2013-04-07 16:01:00,46.8,21.7,29.85,SW,229,3.6,5.8,37,0.04,,,0.12,WUHU216WMR968SP,2013-04-07 23:01:00,
2013-04-07 16:06:00,46.8,21.7,29.85,South,191,3.1,5.4,37,0.04,,,0.12,WUHU216WMR968SP,2013-04-07 23:06:00,
2013-04-07 16:11:00,46.9,22.4,29.85,WNW,290,0.0,4.0,38,0.04,,,0.12,WUHU216WMR968SP,2013-04-07 23:11:00,
2013-04-07 16:16:00,47.1,21.3,29.85,SW,224,3.1,5.4,36,0.00,,,0.12,WUHU216WMR968SP,2013-04-07 23:16:00,
2013-04-07 16:22:00,47.5,22.3,29.85,SW,227,2.2,5.4,37,0.00,,,0.12,WUHU216WMR968SP,2013-04-07 23:22:00,
2013-04-07 16:27:00,47.5,21.0,29.85,West,269,3.1,5.4,35,0.00,,,0.12,WUHU216WMR968SP,2013-04-07 23:27:00,
2013-04-07 16:32:00,47.5,21.6,29.85,West,269,0.0,4.9,36,0.00,,,0.12,WUHU216WMR968SP,2013-04-07 23:32:00,
2013-04-07 16:37:00,47.7,21.8,29.82,WNW,285,2.7,5.4,36,0.00,,,0.12,WUHU216WMR968SP,2013-04-07 23:37:00,
2013-04-07 16:42:00,47.7,20.4,29.82,West,265,2.2,5.4,34,0.00,,,0.12,WUHU216WMR968SP,2013-04-07 23:42:00,
2013-04-07 16:47:00,47.5,20.3,29.82,SSW,206,3.6,7.6,34,0.00,,,0.12,WUHU216WMR968SP,2013-04-07 23:47:00,
2013-04-07 16:52:00,46.9,20.4,29.85,SW,220,3.6,7.6,35,0.00,,,0.12,WUHU216WMR968SP,2013-04-07 23:52:00,
2013-04-07 16:57:00,46.0,20.3,29.85,SW,214,4.0,6.3,36,0.00,,,0.12,WUHU216WMR968SP,2013-04-07 23:57:00,
2013-04-07 17:02:00,45.3,21.0,29.85,WSW,254,2.2,5.8,38,0.00,,,0.12,WUHU216WMR968SP,2013-04-08 00:02:00,
2013-04-07 17:07:00,45.1,21.4,29.82,West,277,0.0,5.4,39,0.00,,,0.12,WUHU216WMR968SP,2013-04-08 00:07:00,
2013-04-07 17:12:00,45.3,22.2,29.82,West,275,0.0,3.6,40,0.04,,,0.16,WUHU216WMR968SP,2013-04-08 00:12:00,
2013-04-07 17:17:00,45.3,22.2,29.82,West,259,2.2,3.1,40,0.04,,,0.16,WUHU216WMR968SP,2013-04-08 00:17:00,
2013-04-07 17:22:00,45.3,22.2,29.82,SW,228,3.1,4.5,40,0.04,,,0.16,WUHU216WMR968SP,2013-04-08 00:22:00,
2013-04-07 17:27:00,45.5,22.4,29.82,SW,228,2.2,4.5,40,0.04,,,0.16,WUHU216WMR968SP,2013-04-08 00:27:00,
2013-04-07 17:32:00,45.3,22.2,29.82,SW,228,2.2,4.0,40,0.04,,,0.16,WUHU216WMR968SP,2013-04-08 00:32:00,
2013-04-07 17:37:00,45.5,23.6,29.82,SW,228,2.7,4.0,42,0.04,,,0.16,WUHU216WMR968SP,2013-04-08 00:37:00,
2013-04-07 17:42:00,45.5,23.0,29.82,SSW,196,2.7,4.0,41,0.04,,,0.16,WUHU216WMR968SP,2013-04-08 00:42:00,
2013-04-07 17:47:00,45.5,22.4,29.82,SW,218,2.7,4.0,40,0.04,,,0.16,WUHU216WMR968SP,2013-04-08 00:47:00,
2013-04-07 17:52:00,45.3,22.8,29.85,SW,218,0.0,4.0,41,0.04,,,0.16,WUHU216WMR968SP,2013-04-08 00:52:00,
2013-04-07 17:57:00,45.3,23.4,29.85,SSW,206,2.2,4.0,42,0.04,,,0.16,WUHU216WMR968SP,2013-04-08 00:57:00,
2013-04-07 18:02:00,45.1,22.6,29.85,SSW,206,0.0,4.0,41,0.04,,,0.16,WUHU216WMR968SP,2013-04-08 01:02:00,
2013-04-07 18:07:00,45.1,22.6,29.85,SSW,207,0.0,3.1,41,0.04,,,0.16,WUHU216WMR968SP,2013-04-08 01:07:00,
2013-04-07 18:12:00,44.8,22.9,29.85,SSW,207,0.0,3.1,42,0.00,,,0.16,WUHU216WMR968SP,2013-04-08 01:12:00,
2013-04-07 18:17:00,44.6,23.3,29.85,SSW,208,0.0,0.0,43,0.00,,,0.16,WUHU216WMR968SP,2013-04-08 01:17:00,
2013-04-07 18:22:00,44.4,23.1,29.85,SSW,207,0.0,0.0,43,0.00,,,0.16,WUHU216WMR968SP,2013-04-08 01:22:00,
2013-04-07 18:27:00,44.4,23.7,29.85,SSW,207,0.0,0.0,44,0.00,,,0.16,WUHU216WMR968SP,2013-04-08 01:27:00,
2013-04-07 18:32:00,44.2,23.5,29.85,SSW,207,0.0,0.0,44,0.00,,,0.16,WUHU216WMR968SP,2013-04-08 01:32:00,
2013-04-07 18:37:00,44.4,24.3,29.85,SSW,207,0.0,0.0,45,0.00,,,0.16,WUHU216WMR968SP,2013-04-08 01:37:00,
2013-04-07 18:42:00,44.2,24.6,29.85,SSW,208,0.0,0.0,46,0.00,,,0.16,WUHU216WMR968SP,2013-04-08 01:42:00,
2013-04-07 18:47:00,44.2,24.6,29.85,SSW,208,0.0,0.0,46,0.00,,,0.16,WUHU216WMR968SP,2013-04-08 01:47:00,
2013-04-07 18:53:00,44.2,24.6,29.85,SSW,208,0.0,0.0,46,0.00,,,0.16,WUHU216WMR968SP,2013-04-08 01:53:00,
2013-04-07 18:58:00,44.2,25.1,29.85,SSW,207,0.0,0.0,47,0.00,,,0.16,WUHU216WMR968SP,2013-04-08 01:58:00,
2013-04-07 19:03:00,44.2,25.1,29.85,SSW,208,0.0,0.0,47,0.00,,,0.16,WUHU216WMR968SP,2013-04-08 02:03:00,
2013-04-07 19:08:00,44.2,25.7,29.85,SSW,208,0.0,0.0,48,0.00,,,0.16,WUHU216WMR968SP,2013-04-08 02:08:00,
2013-04-07 19:13:00,44.1,25.1,29.85,SSW,208,0.0,0.0,47,0.00,,,0.16,WUHU216WMR968SP,2013-04-08 02:13:00,
2013-04-07 19:18:00,44.1,24.0,29.85,SSW,207,0.0,2.7,45,0.00,,,0.16,WUHU216WMR968SP,2013-04-08 02:18:00,
2013-04-07 19:23:00,43.9,23.8,29.85,SSW,208,0.0,2.7,45,0.00,,,0.16,WUHU216WMR968SP,2013-04-08 02:23:00,
2013-04-07 19:28:00,43.7,23.6,29.85,SSW,208,0.0,2.7,45,0.00,,,0.16,WUHU216WMR968SP,2013-04-08 02:28:00,
2013-04-07 19:33:00,43.7,23.6,29.85,SSW,207,0.0,0.0,45,0.00,,,0.16,WUHU216WMR968SP,2013-04-08 02:33:00,
2013-04-07 19:37:00,43.5,23.4,29.85,SSW,207,0.0,0.0,45,0.00,,,0.16,WUHU216WMR968SP,2013-04-08 02:37:00,
2013-04-07 19:43:00,43.5,24.0,29.85,SSW,207,0.0,0.0,46,0.00,,,0.16,WUHU216WMR968SP,2013-04-08 02:43:00,
2013-04-07 19:48:00,43.3,24.3,29.85,NW,311,0.0,0.0,47,0.04,,,0.20,WUHU216WMR968SP,2013-04-08 02:48:00,
2013-04-07 19:53:00,43.2,25.3,29.85,NW,311,0.0,0.0,49,0.04,,,0.20,WUHU216WMR968SP,2013-04-08 02:53:00,
2013-04-07 19:58:00,43.2,25.8,29.85,NW,311,0.0,0.0,50,0.04,,,0.20,WUHU216WMR968SP,2013-04-08 02:58:00,
2013-04-07 20:03:00,43.0,25.6,29.85,NW,311,0.0,0.0,50,0.04,,,0.20,WUHU216WMR968SP,2013-04-08 03:03:00,
2013-04-07 20:09:00,42.6,25.7,29.85,NW,311,0.0,0.0,51,0.04,,,0.20,WUHU216WMR968SP,2013-04-08 03:09:00,
2013-04-07 20:14:00,42.4,25.5,29.85,NW,311,0.0,0.0,51,0.04,,,0.20,WUHU216WMR968SP,2013-04-08 03:14:00,
2013-04-07 20:19:00,42.4,25.5,29.85,NW,311,0.0,0.0,51,0.04,,,0.20,WUHU216WMR968SP,2013-04-08 03:19:00,
2013-04-07 20:24:00,42.4,25.5,29.85,NW,311,0.0,0.0,51,0.04,,,0.20,WUHU216WMR968SP,2013-04-08 03:24:00,
2013-04-07 20:29:00,42.3,25.9,29.85,NW,311,0.0,0.0,52,0.04,,,0.20,WUHU216WMR968SP,2013-04-08 03:29:00,
2013-04-07 20:35:00,42.3,25.9,29.85,NW,311,0.0,0.0,52,0.04,,,0.20,WUHU216WMR968SP,2013-04-08 03:35:00,
2013-04-07 20:40:00,42.3,26.4,29.85,NW,310,0.0,0.0,53,0.04,,,0.20,WUHU216WMR968SP,2013-04-08 03:40:00,
2013-04-07 20:45:00,42.1,26.2,29.85,NW,311,0.0,0.0,53,0.00,,,0.20,WUHU216WMR968SP,2013-04-08 03:45:00,
2013-04-07 20:50:00,42.1,26.2,29.85,NW,311,0.0,0.0,53,0.00,,,0.20,WUHU216WMR968SP,2013-04-08 03:50:00,
2013-04-07 20:55:00,42.1,26.2,29.85,NW,310,0.0,0.0,53,0.00,,,0.20,WUHU216WMR968SP,2013-04-08 03:55:00,
2013-04-07 21:00:00,42.1,26.7,29.85,NW,310,0.0,0.0,54,0.00,,,0.20,WUHU216WMR968SP,2013-04-08 04:00:00,
2013-04-07 21:05:00,42.1,26.7,29.88,NW,311,0.0,0.0,54,0.00,,,0.20,WUHU216WMR968SP,2013-04-08 04:05:00,
2013-04-07 21:10:00,42.1,26.7,29.88,NW,311,0.0,0.0,54,0.00,,,0.20,WUHU216WMR968SP,2013-04-08 04:10:00,
2013-04-07 21:15:00,42.1,27.1,29.88,NW,311,0.0,0.0,55,0.00,,,0.20,WUHU216WMR968SP,2013-04-08 04:15:00,
2013-04-07 21:20:00,42.1,26.7,29.88,NW,311,0.0,0.0,54,0.00,,,0.20,WUHU216WMR968SP,2013-04-08 04:20:00,
2013-04-07 21:25:00,42.1,26.7,29.88,NW,314,0.0,3.1,54,0.00,,,0.20,WUHU216WMR968SP,2013-04-08 04:25:00,
2013-04-07 21:30:00,42.1,27.1,29.88,NW,314,0.0,3.1,55,0.00,,,0.20,WUHU216WMR968SP,2013-04-08 04:30:00,
2013-04-07 21:35:00,42.1,27.1,29.88,NW,315,0.0,0.0,55,0.00,,,0.20,WUHU216WMR968SP,2013-04-08 04:35:00,
2013-04-07 21:40:00,42.1,27.1,29.88,NW,314,0.0,0.0,55,0.00,,,0.20,WUHU216WMR968SP,2013-04-08 04:40:00,
2013-04-07 21:45:00,41.9,26.9,29.88,NW,314,0.0,0.0,55,0.00,,,0.20,WUHU216WMR968SP,2013-04-08 04:45:00,
2013-04-07 21:50:00,41.7,27.2,29.88,NW,315,0.0,0.0,56,0.00,,,0.20,WUHU216WMR968SP,2013-04-08 04:50:00,
2013-04-07 21:55:00,41.5,27.0,29.88,NW,314,0.0,0.0,56,0.00,,,0.20,WUHU216WMR968SP,2013-04-08 04:55:00,
2013-04-07 22:00:00,41.5,27.0,29.88,NW,314,0.0,0.0,56,0.00,,,0.20,WUHU216WMR968SP,2013-04-08 05:00:00,
2013-04-07 22:05:00,41.4,27.3,29.88,NW,314,0.0,0.0,57,0.00,,,0.20,WUHU216WMR968SP,2013-04-08 05:05:00,
2013-04-07 22:10:00,41.4,27.3,29.88,NW,314,0.0,0.0,57,0.00,,,0.20,WUHU216WMR968SP,2013-04-08 05:10:00,
2013-04-07 22:15:00,41.4,27.8,29.88,NW,314,0.0,0.0,58,0.00,,,0.20,WUHU216WMR968SP,2013-04-08 05:15:00,
2013-04-07 22:20:00,41.2,27.6,29.88,NW,314,0.0,0.0,58,0.00,,,0.20,WUHU216WMR968SP,2013-04-08 05:20:00,
2013-04-07 22:25:00,41.2,28.0,29.88,NW,314,0.0,0.0,59,0.00,,,0.20,WUHU216WMR968SP,2013-04-08 05:25:00,
2013-04-07 22:30:00,41.2,28.0,29.88,NW,315,0.0,0.0,59,0.00,,,0.20,WUHU216WMR968SP,2013-04-08 05:30:00,
2013-04-07 22:35:00,41.2,28.4,29.88,NW,315,0.0,0.0,60,0.00,,,0.20,WUHU216WMR968SP,2013-04-08 05:35:00,
2013-04-07 22:40:00,41.2,28.8,29.88,NW,314,0.0,0.0,61,0.00,,,0.20,WUHU216WMR968SP,2013-04-08 05:40:00,
2013-04-07 22:45:00,41.2,29.2,29.88,NW,314,0.0,0.0,62,0.00,,,0.20,WUHU216WMR968SP,2013-04-08 05:45:00,
2013-04-07 22:50:00,41.2,29.2,29.91,NW,315,0.0,0.0,62,0.00,,,0.20,WUHU216WMR968SP,2013-04-08 05:50:00,
2013-04-07 22:55:00,41.2,29.6,29.91,NW,314,0.0,0.0,63,0.00,,,0.20,WUHU216WMR968SP,2013-04-08 05:55:00,
2013-04-07 23:00:00,41.2,30.0,29.91,NW,314,0.0,0.0,64,0.00,,,0.20,WUHU216WMR968SP,2013-04-08 06:00:00,
2013-04-07 23:05:00,41.4,30.6,29.91,NW,314,0.0,0.0,65,0.04,,,0.24,WUHU216WMR968SP,2013-04-08 06:05:00,
2013-04-07 23:10:00,41.4,30.6,29.91,NW,314,0.0,0.0,65,0.04,,,0.24,WUHU216WMR968SP,2013-04-08 06:10:00,
2013-04-07 23:15:00,41.2,30.8,29.91,NW,315,0.0,4.9,66,0.04,,,0.24,WUHU216WMR968SP,2013-04-08 06:15:00,
2013-04-07 23:20:00,41.2,31.2,29.91,NW,315,0.0,4.9,67,0.04,,,0.24,WUHU216WMR968SP,2013-04-08 06:20:00,
2013-04-07 23:25:00,41.4,32.0,29.91,NW,315,0.0,0.0,68,0.04,,,0.24,WUHU216WMR968SP,2013-04-08 06:25:00,
2013-04-07 23:30:00,41.2,32.0,29.91,NW,315,0.0,0.0,69,0.04,,,0.24,WUHU216WMR968SP,2013-04-08 06:30:00,
2013-04-07 23:35:00,41.2,32.0,29.91,NW,315,0.0,0.0,69,0.04,,,0.24,WUHU216WMR968SP,2013-04-08 06:35:00,
2013-04-07 23:40:00,41.2,32.0,29.91,NW,315,0.0,0.0,68,0.04,,,0.24,WUHU216WMR968SP,2013-04-08 06:40:00,
2013-04-07 23:45:00,41.2,32.0,29.91,NW,315,0.0,0.0,68,0.08,,,0.28,WUHU216WMR968SP,2013-04-08 06:45:00,
2013-04-07 23:50:00,41.2,32.0,29.94,NW,315,0.0,0.0,68,0.08,,,0.28,WUHU216WMR968SP,2013-04-08 06:50:00,
2013-04-07 23:55:00,41.0,32.0,29.94,NW,315,0.0,0.0,68,0.08,,,0.28,WUHU216WMR968SP,2013-04-08 06:55:00,